Location: Clover
(42.5131°N, 114.6874°W)
Time: 13:31:16
(UTC+00:00)

Explorer 7 - Pass Details

Date: 16 December 2025
Orbit: 433 x 550 km, 50.2° (Epoch: 13 January)

Event Time Altitude Azimuth Distance (km) Brightness Sun altitude
Rises 01:43:22 0° 274° (W) 2,464 11.5 -17.1°
Reaches altitude 10° 01:45:46 10° 288° (WNW) 1,574 10.0 -17.5°
Maximum altitude 01:48:49 27° 347° (NNW) 894 7.8 -18.1°
Enters shadow 01:49:24 25° 6° (N) 927 7.8 -18.2°
